Tracking 18980 objects as of 17-Feb-2018
HD Live streaming from Space Station
objects crossing your sky now

OPS 4258

Track OPS 4258 now!
OPS 4258 is classified as:


NORAD ID: 10508
Int'l Code: 1977-114A
Perigee: 35,726.3 km
Apogee: 35,868.7 km
Inclination: 17.0 °
Period: 1,436.3 minutes
Semi major axis: 42168 km
RCS: Unknown
Launch date: December 11, 1977
Source: United States (US)
Launch site: AIR FORCE EASTERN TEST RANGE (AFETR)
aabbcc
Your satellite tracking list
Your tracking list is empty




NASA's NSSDC Master Catalog

Two Line Element Set (TLE):
1 10508U 77114A   18034.01279334 0.00000000  00000-0  00000-0 0    02
2 10508  16.9892 319.6582 0016885 296.5434  63.2955  1.00258532    02
Source of the keplerian elements: McCants